sat.trackr.live / text

‹ back to catalog

STARLINK-2412

NORAD 48094 · 2021-027C

PAYLOAD ACTIVE UNKNOWN

§ Identity

Operator
Country
US
Launch date
2021-04-07
Launch site
AFETR
Launch vehicle
Mass (kg)
RCS (m²)

Purposes: comms

External: N2YO · Heavens-Above · Gunter

§ Orbital elements

Epoch: 2026-09-08T21:18:08.206272Z

Period
94.01 min
Inclination
53.1586°
Eccentricity
0.0000911
Mean motion
15.31701278 rev/d
Perigee alt
470.1 km
Apogee alt
471.4 km
Semi-major
6,848.9 km
B*
1.3233e-4
RAAN
33.1935°
Arg perigee
74.7851°
Mean anomaly
285.3251°
Rev number
30,058

§ Raw data

STARLINK-24121 48094U 21027C   26251.88759498  .00003744  00000+0  13233-3 0  99932 48094  53.1586  33.1935 0000911  74.7851 285.3251 15.31701278300589

JSON: /api/v1/satellites/48094 · /tle

For live sub-satellite position, see the globe view (requires WebGL).

§ Visibility from observer

Set your observer location to see the next 7 days of passes ≥ 10°. The values pass through the URL so the page stays shareable.

No JS? Fill the form by hand. The geolocation button needs JavaScript.